GLO9940 SBPA-SAME

Flight info

Callsign GLO9940
Flight time N/A
Altitude 36000
Route POXEV UM418 CBA UL531 SALBO
Aircraft B737/M-SDFGIKLORWXY/LB1

Departure

Time 2026-05-07 13:23
Airport Porto Alegre-Salgado Filho International Airport (SBPA)

Arrival

Time N/A
Airport Governor Francisco Gabrielli International Airport (SAME)
Time Latitude Longitude Altitude Speed Heading
2026-05-07 13:14 -29.99127 -51.17537 17 ft 0 kts
2026-05-07 13:17 -29.99133 -51.17537 15 ft 2 kts 357°
2026-05-07 13:17 -29.99149 -51.17535 17 ft 2 kts 344°
2026-05-07 13:17 -29.99164 -51.17527 15 ft 2 kts 310°
2026-05-07 13:18 -29.99171 -51.17510 18 ft 2 kts 277°
2026-05-07 13:18 -29.99172 -51.17500 18 ft 0 kts 272°
2026-05-07 13:18 -29.99172 -51.17499 18 ft 0 kts 272°
2026-05-07 13:19 -29.99172 -51.17500 18 ft 1 kts 272°
2026-05-07 13:19 -29.99171 -51.17523 16 ft 5 kts 272°
2026-05-07 13:20 -29.99170 -51.17577 15 ft 8 kts 271°
2026-05-07 13:20 -29.99169 -51.17650 15 ft 10 kts 272°
2026-05-07 13:20 -29.99217 -51.17697 15 ft 11 kts 183°
2026-05-07 13:20 -29.99283 -51.17746 15 ft 13 kts 254°
2026-05-07 13:21 -29.99283 -51.17855 15 ft 14 kts 273°
2026-05-07 13:21 -29.99281 -51.17977 15 ft 16 kts 255°
2026-05-07 13:21 -29.99319 -51.18104 15 ft 17 kts 249°
2026-05-07 13:21 -29.99365 -51.18226 15 ft 16 kts 227°
2026-05-07 13:22 -29.99433 -51.18268 16 ft 8 kts 164°
2026-05-07 13:22 -29.99441 -51.18206 17 ft 9 kts 90°
2026-05-07 13:22 -29.99447 -51.17928 17 ft 76 kts 91°
2026-05-07 13:22 -29.99464 -51.16989 12 ft 155 kts 90°
2026-05-07 13:23 -29.99497 -51.15501 169 ft 207 kts 90°
2026-05-07 13:23 -29.99541 -51.13795 993 ft 216 kts 90°
2026-05-07 13:23 -29.99597 -51.12027 1818 ft 229 kts 89°
2026-05-07 13:23 -30.00232 -51.10212 2377 ft 268 kts 127°
2026-05-07 13:24 -30.01816 -51.08968 3165 ft 286 kts 163°
2026-05-07 13:24 -30.03767 -51.08651 4225 ft 281 kts 186°
2026-05-07 13:24 -30.05707 -51.08819 5341 ft 278 kts 193°
2026-05-07 13:24 -30.07592 -51.09303 6214 ft 280 kts 214°
2026-05-07 13:25 -30.09003 -51.10765 6948 ft 269 kts 248°
2026-05-07 13:25 -30.09639 -51.12758 7842 ft 266 kts 263°
2026-05-07 13:25 -30.09950 -51.14857 8702 ft 272 kts 267°
2026-05-07 13:25 -30.10172 -51.17051 9570 ft 279 kts 268°
2026-05-07 13:26 -30.10380 -51.19316 10269 ft 291 kts 268°
2026-05-07 13:26 -30.10601 -51.21755 10527 ft 318 kts 268°
2026-05-07 13:26 -30.10846 -51.24347 11158 ft 329 kts 267°
2026-05-07 13:26 -30.11107 -51.26993 11983 ft 333 kts 267°
2026-05-07 13:27 -30.11377 -51.29664 12827 ft 337 kts 267°
2026-05-07 13:27 -30.11655 -51.32369 13613 ft 341 kts 267°
2026-05-07 13:27 -30.11939 -51.35111 14345 ft 345 kts 268°
2026-05-07 13:27 -30.12226 -51.37873 15147 ft 347 kts 268°
2026-05-07 13:28 -30.12515 -51.40646 15921 ft 349 kts 268°
2026-05-07 13:28 -30.12802 -51.43411 16667 ft 353 kts 267°
2026-05-07 13:28 -30.13096 -51.46238 17408 ft 356 kts 267°
2026-05-07 13:28 -30.13393 -51.49098 18168 ft 359 kts 267°
2026-05-07 13:29 -30.13690 -51.51974 18821 ft 362 kts 267°
2026-05-07 13:29 -30.13990 -51.54876 19498 ft 365 kts 267°
2026-05-07 13:29 -30.14292 -51.57795 20194 ft 367 kts 267°
2026-05-07 13:29 -30.14594 -51.60728 20873 ft 369 kts 267°
2026-05-07 13:30 -30.14897 -51.63686 21529 ft 372 kts 267°
2026-05-07 13:30 -30.15202 -51.66662 22167 ft 374 kts 267°
2026-05-07 13:30 -30.15509 -51.69666 22791 ft 377 kts 267°
2026-05-07 13:30 -30.15814 -51.72661 23385 ft 380 kts 267°
2026-05-07 13:31 -30.16125 -51.75712 23897 ft 383 kts 267°
2026-05-07 13:31 -30.16435 -51.78770 24479 ft 383 kts 267°
2026-05-07 13:31 -30.16745 -51.81820 25116 ft 382 kts 267°
2026-05-07 13:31 -30.17053 -51.84864 25709 ft 381 kts 267°
2026-05-07 13:32 -30.17360 -51.87908 26254 ft 382 kts 267°
2026-05-07 13:32 -30.17668 -51.90965 26790 ft 383 kts 267°
2026-05-07 13:32 -30.17976 -51.94036 27345 ft 383 kts 267°
2026-05-07 13:32 -30.18283 -51.97108 27812 ft 385 kts 267°
2026-05-07 13:33 -30.18590 -52.00186 28302 ft 386 kts 266°
2026-05-07 13:33 -30.18897 -52.03271 28830 ft 387 kts 266°
2026-05-07 13:33 -30.19201 -52.06327 29341 ft 388 kts 266°
2026-05-07 13:33 -30.19508 -52.09432 29783 ft 390 kts 266°
2026-05-07 13:34 -30.19816 -52.12547 30220 ft 390 kts 266°
2026-05-07 13:34 -30.20426 -52.18723 31353 ft 383 kts 266°
2026-05-07 13:34 -30.20726 -52.21776 31876 ft 380 kts 266°
2026-05-07 13:35 -30.21023 -52.24801 32344 ft 379 kts 266°
2026-05-07 13:35 -30.21318 -52.27826 32824 ft 377 kts 265°
2026-05-07 13:35 -30.21611 -52.30842 33203 ft 378 kts 265°
2026-05-07 13:35 -30.21906 -52.33883 33397 ft 383 kts 265°
2026-05-07 13:36 -30.22202 -52.36939 33803 ft 381 kts 265°
2026-05-07 13:36 -30.22492 -52.39941 34239 ft 378 kts 265°
2026-05-07 13:36 -30.22784 -52.42960 34556 ft 378 kts 264°
2026-05-07 13:36 -30.23075 -52.45994 34771 ft 381 kts 264°
2026-05-07 13:37 -30.23368 -52.49048 34974 ft 383 kts 264°
2026-05-07 13:37 -30.23662 -52.52119 35171 ft 385 kts 264°
2026-05-07 13:37 -30.23958 -52.55221 35253 ft 391 kts 264°
2026-05-07 13:38 -30.24559 -52.61538 35647 ft 395 kts 264°
2026-05-07 13:38 -30.24860 -52.64704 35803 ft 398 kts 264°
2026-05-07 13:38 -30.25162 -52.67904 35807 ft 397 kts 264°
2026-05-07 13:38 -30.25455 -52.71003 35787 ft 386 kts 264°
2026-05-07 13:39 -30.25742 -52.74053 35797 ft 379 kts 264°
2026-05-07 13:39 -30.26311 -52.80126 35809 ft 383 kts 264°
2026-05-07 13:40 -30.26890 -52.86343 35811 ft 392 kts 264°
2026-05-07 13:40 -30.27468 -52.92578 35802 ft 391 kts 264°
2026-05-07 13:41 -30.28046 -52.98841 35795 ft 391 kts 264°
2026-05-07 13:41 -30.28620 -53.05091 35797 ft 391 kts 264°
2026-05-07 13:42 -30.29191 -53.11354 35792 ft 391 kts 264°
2026-05-07 13:42 -30.29761 -53.17630 35789 ft 392 kts 264°
2026-05-07 13:43 -30.30327 -53.23899 35788 ft 392 kts 264°
2026-05-07 13:43 -30.30888 -53.30138 35789 ft 392 kts 265°
2026-05-07 13:44 -30.31449 -53.36425 35776 ft 393 kts 265°
2026-05-07 13:44 -30.32009 -53.42719 35782 ft 393 kts 265°
2026-05-07 13:45 -30.32693 -53.49006 35777 ft 394 kts 262°
2026-05-07 13:45 -30.33601 -53.55262 35775 ft 394 kts 262°
2026-05-07 13:46 -30.34484 -53.61522 35776 ft 394 kts 262°
2026-05-07 13:46 -30.35344 -53.67788 35771 ft 394 kts 262°
2026-05-07 13:47 -30.36192 -53.74023 35787 ft 393 kts 262°
2026-05-07 13:47 -30.37041 -53.80277 35781 ft 393 kts 263°
2026-05-07 13:48 -30.37884 -53.86515 35766 ft 391 kts 263°
2026-05-07 13:48 -30.38722 -53.92728 35767 ft 390 kts 263°
2026-05-07 13:49 -30.39554 -53.98924 35763 ft 389 kts 263°
2026-05-07 13:49 -30.40382 -54.05114 35765 ft 388 kts 263°
2026-05-07 13:50 -30.41205 -54.11288 35757 ft 388 kts 263°
2026-05-07 13:50 -30.42020 -54.17423 35753 ft 387 kts 263°
2026-05-07 13:51 -30.42836 -54.23588 35747 ft 387 kts 263°
2026-05-07 13:51 -30.43649 -54.29755 35746 ft 387 kts 263°
2026-05-07 13:52 -30.44460 -54.35936 35737 ft 388 kts 263°
2026-05-07 13:52 -30.45134 -54.41085 35738 ft 389 kts 263°
2026-05-07 13:53 -30.45943 -54.47283 35729 ft 390 kts 263°
2026-05-07 13:53 -30.46752 -54.53513 35733 ft 391 kts 263°
2026-05-07 13:54 -30.47559 -54.59749 35726 ft 392 kts 263°
2026-05-07 13:54 -30.48367 -54.66015 35715 ft 393 kts 263°
2026-05-07 13:55 -30.49174 -54.72297 35717 ft 395 kts 263°
2026-05-07 13:55 -30.49981 -54.78606 35714 ft 396 kts 264°
2026-05-07 13:56 -30.50782 -54.84889 35706 ft 397 kts 264°
2026-05-07 13:56 -30.51587 -54.91226 35708 ft 397 kts 264°
2026-05-07 13:57 -30.52389 -54.97569 35696 ft 397 kts 264°
2026-05-07 13:57 -30.53185 -55.03918 35702 ft 398 kts 264°
2026-05-07 13:58 -30.53977 -55.10269 35700 ft 398 kts 264°
2026-05-07 13:58 -30.54767 -55.16621 35696 ft 398 kts 264°
2026-05-07 13:59 -30.55525 -55.22969 35694 ft 397 kts 265°
2026-05-07 13:59 -30.56253 -55.29316 35697 ft 397 kts 265°
2026-05-07 14:00 -30.56974 -55.35626 35698 ft 396 kts 265°
2026-05-07 14:00 -30.57699 -55.41971 35697 ft 396 kts 265°
2026-05-07 14:01 -30.58422 -55.48311 35697 ft 396 kts 265°
2026-05-07 14:01 -30.59143 -55.54652 35709 ft 396 kts 265°
2026-05-07 14:02 -30.59860 -55.60991 35698 ft 395 kts 266°
2026-05-07 14:02 -30.60572 -55.67316 35693 ft 395 kts 266°
2026-05-07 14:03 -30.61277 -55.73607 35694 ft 395 kts 266°
2026-05-07 14:03 -30.61983 -55.79929 35704 ft 394 kts 266°
2026-05-07 14:04 -30.62686 -55.86253 35686 ft 395 kts 267°
2026-05-07 14:04 -30.63384 -55.92569 35692 ft 394 kts 267°
2026-05-07 14:05 -30.64076 -55.98847 35693 ft 394 kts 267°
2026-05-07 14:05 -30.64768 -56.05163 35694 ft 393 kts 267°
2026-05-07 14:06 -30.65456 -56.11467 35699 ft 394 kts 267°
2026-05-07 14:06 -30.66145 -56.17788 35691 ft 395 kts 267°
2026-05-07 14:07 -30.66853 -56.24122 35684 ft 396 kts 266°
2026-05-07 14:07 -30.67565 -56.30467 35688 ft 395 kts 266°
2026-05-07 14:08 -30.68264 -56.36747 35680 ft 394 kts 267°
2026-05-07 14:08 -30.68962 -56.43063 35685 ft 393 kts 267°
2026-05-07 14:09 -30.69655 -56.49360 35687 ft 393 kts 267°
2026-05-07 14:09 -30.70346 -56.55664 35681 ft 392 kts 267°
2026-05-07 14:10 -30.71035 -56.61962 35682 ft 393 kts 268°
2026-05-07 14:10 -30.71738 -56.68260 35682 ft 393 kts 268°
2026-05-07 14:11 -30.72429 -56.74537 35679 ft 394 kts 268°
2026-05-07 14:11 -30.73111 -56.80867 35682 ft 395 kts 268°
2026-05-07 14:12 -30.73793 -56.87225 35677 ft 397 kts 269°
2026-05-07 14:12 -30.74476 -56.93618 35671 ft 399 kts 269°
2026-05-07 14:13 -30.75159 -57.00032 35666 ft 400 kts 269°
2026-05-07 14:13 -30.75841 -57.06458 35667 ft 401 kts 269°
2026-05-07 14:14 -30.76517 -57.12861 35681 ft 402 kts 269°
2026-05-07 14:14 -30.77195 -57.19326 35665 ft 403 kts 269°
2026-05-07 14:15 -30.77873 -57.25813 35661 ft 405 kts 269°
2026-05-07 14:15 -30.78550 -57.32318 35661 ft 405 kts 269°
2026-05-07 14:16 -30.79224 -57.38828 35693 ft 405 kts 269°
2026-05-07 14:16 -30.79895 -57.45349 35663 ft 407 kts 269°
2026-05-07 14:17 -30.80564 -57.51901 35656 ft 408 kts 269°
2026-05-07 14:17 -30.81231 -57.58458 35647 ft 408 kts 269°
2026-05-07 14:18 -30.81895 -57.65023 35655 ft 409 kts 269°
2026-05-07 14:18 -30.82557 -57.71609 35668 ft 411 kts 269°
2026-05-07 14:19 -30.83217 -57.78186 35642 ft 412 kts 269°
2026-05-07 14:19 -30.83892 -57.84818 35657 ft 413 kts 269°
2026-05-07 14:20 -30.84591 -57.91453 35656 ft 413 kts 269°
2026-05-07 14:20 -30.85289 -57.98100 35653 ft 414 kts 270°
2026-05-07 14:21 -30.85980 -58.04748 35653 ft 414 kts 270°
2026-05-07 14:21 -30.86663 -58.11363 35651 ft 414 kts 270°
2026-05-07 14:22 -30.87347 -58.18021 35650 ft 414 kts 270°
2026-05-07 14:22 -30.88027 -58.24680 35658 ft 415 kts 271°
2026-05-07 14:23 -30.88706 -58.31356 35659 ft 415 kts 271°
2026-05-07 14:23 -30.89383 -58.38038 35662 ft 416 kts 271°
2026-05-07 14:24 -30.90053 -58.44732 35665 ft 416 kts 271°
2026-05-07 14:24 -30.90719 -58.51429 35669 ft 417 kts 272°
2026-05-07 14:25 -30.91385 -58.58153 35670 ft 417 kts 272°
2026-05-07 14:25 -30.92044 -58.64835 35663 ft 418 kts 272°
2026-05-07 14:26 -30.92703 -58.71555 35672 ft 418 kts 272°
2026-05-07 14:26 -30.93360 -58.78282 35671 ft 417 kts 272°
2026-05-07 14:27 -30.93966 -58.84995 35677 ft 417 kts 272°
2026-05-07 14:27 -30.94157 -58.87219 35675 ft 417 kts 272°